TimeCDT,TemperatureF,Dew PointF,Humidity,Sea Level PressureIn,VisibilityMPH,Wind Direction,Wind SpeedMPH,Gust SpeedMPH,PrecipitationIn,Events,Conditions,WindDirDegrees,DateUTC
12:53 AM,69.1,66.0,90,29.83,10.0,South,8.1,-,N/A,,Clear,170,2013-10-03 05:53:00
1:53 AM,70.0,66.9,90,29.84,10.0,South,5.8,-,N/A,,Partly Cloudy,170,2013-10-03 06:53:00
2:53 AM,70.0,66.9,90,29.82,10.0,South,6.9,-,N/A,,Scattered Clouds,180,2013-10-03 07:53:00
3:53 AM,70.0,66.9,90,29.82,10.0,South,6.9,-,N/A,,Mostly Cloudy,180,2013-10-03 08:53:00
4:53 AM,71.1,66.0,84,29.81,10.0,South,8.1,-,N/A,,Scattered Clouds,180,2013-10-03 09:53:00
5:53 AM,71.1,66.0,84,29.82,10.0,West,9.2,-,N/A,Thunderstorm,Thunderstorm,280,2013-10-03 10:53:00
6:01 AM,71.6,66.2,83,29.84,10.0,NW,8.1,-,N/A,Thunderstorm,Thunderstorm,320,2013-10-03 11:01:00
6:17 AM,69.8,60.8,73,29.85,9.0,NNW,13.8,20.7,N/A,,Overcast,340,2013-10-03 11:17:00
6:28 AM,66.2,62.6,88,29.85,10.0,NNW,8.1,-,N/A,,Overcast,340,2013-10-03 11:28:00
6:45 AM,64.4,62.6,94,29.85,2.0,North,9.2,-,0.04,Rain-Thunderstorm,Rain,360,2013-10-03 11:45:00
6:53 AM,64.9,62.1,90,29.84,9.0,North,9.2,-,0.05,Rain-Thunderstorm,Light Rain,350,2013-10-03 11:53:00
7:08 AM,64.4,62.6,94,29.87,9.0,North,3.5,-,0.01,Rain-Thunderstorm,Light Rain,360,2013-10-03 12:08:00
7:23 AM,64.4,62.6,94,29.88,3.0,NW,6.9,-,0.09,Rain,Light Rain,320,2013-10-03 12:23:00
7:44 AM,64.4,62.6,94,29.89,5.0,WNW,4.6,-,0.12,Rain-Thunderstorm,Light Thunderstorms and Rain,300,2013-10-03 12:44:00
7:51 AM,64.4,62.6,94,29.88,1.8,NNE,3.5,-,0.19,Rain-Thunderstorm,Heavy Thunderstorms and Rain,30,2013-10-03 12:51:00
7:53 AM,63.0,63.0,100,29.87,1.8,NE,6.9,-,0.20,Rain,Heavy Rain,40,2013-10-03 12:53:00
8:00 AM,64.4,62.6,94,29.88,3.0,NNE,5.8,-,0.02,Rain,Rain,20,2013-10-03 13:00:00
8:22 AM,64.4,62.6,94,29.89,10.0,NNW,5.8,-,0.02,Rain-Thunderstorm,Light Rain,330,2013-10-03 13:22:00
8:53 AM,64.0,62.1,93,29.91,7.0,WNW,5.8,-,0.04,Rain-Thunderstorm,Light Rain,300,2013-10-03 13:53:00
9:15 AM,64.4,62.6,94,29.92,2.5,North,5.8,-,0.07,Rain,Rain,350,2013-10-03 14:15:00
9:24 AM,62.6,62.6,100,29.92,3.0,North,6.9,-,0.09,Rain,Rain,360,2013-10-03 14:24:00
9:53 AM,63.0,62.1,97,29.90,3.0,North,3.5,-,0.20,Rain-Thunderstorm,Thunderstorms and Rain,10,2013-10-03 14:53:00
10:32 AM,64.4,62.6,94,29.86,3.0,ESE,13.8,-,0.11,Rain,Rain,120,2013-10-03 15:32:00
10:53 AM,64.0,62.1,93,29.84,8.0,East,9.2,19.6,0.15,Rain,Light Rain,100,2013-10-03 15:53:00
11:09 AM,64.4,62.6,94,29.85,10.0,East,9.2,-,0.00,Thunderstorm,Scattered Clouds,90,2013-10-03 16:09:00
11:30 AM,66.2,62.6,88,29.82,10.0,East,8.1,-,0.00,,Clear,100,2013-10-03 16:30:00
11:53 AM,69.1,64.9,87,29.81,10.0,SE,6.9,-,0.00,,Clear,140,2013-10-03 16:53:00
12:53 PM,75.9,64.9,69,29.78,10.0,South,13.8,-,N/A,,Partly Cloudy,180,2013-10-03 17:53:00
1:53 PM,79.0,66.0,64,29.75,10.0,South,15.0,19.6,N/A,,Mostly Cloudy,180,2013-10-03 18:53:00
2:32 PM,80.6,68.0,65,29.76,10.0,South,19.6,24.2,N/A,,Mostly Cloudy,190,2013-10-03 19:32:00
2:53 PM,80.1,68.0,67,29.73,10.0,South,15.0,25.3,N/A,,Mostly Cloudy,190,2013-10-03 19:53:00
3:08 PM,80.6,68.0,65,29.75,10.0,South,20.7,25.3,N/A,,Scattered Clouds,190,2013-10-03 20:08:00
3:53 PM,81.0,69.1,67,29.71,10.0,South,19.6,24.2,N/A,,Scattered Clouds,170,2013-10-03 20:53:00
4:01 PM,82.4,69.8,66,29.74,10.0,South,16.1,24.2,N/A,,Mostly Cloudy,170,2013-10-03 21:01:00
4:13 PM,82.4,69.8,66,29.73,10.0,South,15.0,21.9,N/A,,Mostly Cloudy,170,2013-10-03 21:13:00
4:53 PM,82.0,70.0,67,29.70,10.0,South,17.3,21.9,N/A,,Partly Cloudy,170,2013-10-03 21:53:00
5:53 PM,82.9,68.0,60,29.69,10.0,South,16.1,-,N/A,,Partly Cloudy,190,2013-10-03 22:53:00
6:53 PM,80.1,66.9,64,29.71,10.0,South,9.2,-,N/A,,Clear,190,2013-10-03 23:53:00
7:53 PM,78.1,68.0,71,29.74,10.0,Calm,Calm,-,N/A,,Overcast,0,2013-10-04 00:53:00
8:53 PM,78.1,68.0,71,29.76,10.0,ESE,6.9,-,N/A,,Overcast,110,2013-10-04 01:53:00
9:53 PM,78.1,68.0,71,29.77,10.0,SSE,5.8,-,N/A,,Overcast,150,2013-10-04 02:53:00
11:53 PM,77.0,66.9,71,29.78,10.0,SSE,10.4,19.6,N/A,,Overcast,160,2013-10-04 04:53:00